SCP
0 0 0 0 0 0 -0 0 0 -0 -0 0 0 -0 0 0 -0 0 -0 0 0 0 0 1 1 1 1 0 0 0 0 0 0 0 0 0 0 0 0 0 0 0 0 0
0 0 0 0 0 0 0 -0 0 0 0 0 0 0 0 0 0 -0 -0 -0 0 0 0 0 0 1 1 1 1 1 1 0 0 0 0 0 0 0 0 0 0 0 0 0
0 0 0 0 0 0 0 0 0 0 1 0 0 0 0 0 0 0 0 0 0 0 -0 1 0 1 1 1 1 2 1 1 0 1 0 0 0 0 0 0 0 1 0 0
0 0 0 0 0 0 0 0 0 0 -0 0 0 1 0 0 0 0 0 0 -0 -0 -0 1 1 2 2 1 2 2 3 2 2 1 1 1 0 1 1 1 1 1 1 1
0 0 0 0 0 0 0 0 0 0 -0 0 0 -0 -0 0 0 0 0 0 0 0 0 0 2 2 3 2 2 2 1 1 1 1 1 1 1 1 1 2 2 2 2 1
-0 0 0 0 0 0 0 0 0 -0 0 0 0 0 1 0 0 0 0 0 0 0 0 0 0 2 2 2 2 1 1 2 2 2 2 1 1 1 1 2 1 0 0 0
0 0 0 0 0 0 0 0 0 0 0 0 0 1 0 0 0 0 0 0 0 0 0 0 -0 -0 1 1 1 1 1 1 1 1 1 1 1 1 1 1 0 0 0 0
0 0 0 0 0 0 0 0 0 1 1 1 0 0 0 0 0 0 0 0 0 0 0 0 0 0 -0 0 0 1 1 1 1 0 0 0 0 0 0 0 0 0 0 0
0 0 0 0 0 0 0 0 0 0 0 0 0 0 0 0 0 0 0 0 0 0 0 0 0 0 0 0 0 0 0 0 0 0 0 0 0 0 0 0 0 -0 0 0
0 0 0 0 0 0 0 0 0 0 1 1 0 0 0 0 0 0 0 0 0 0 0 0 0 0 0 0 0 0 0 0 0 0 0 0 0 0 0 0 0 0 0 -0
0 0 0 0 0 0 0 0 0 0 0 0 0 0 0 0 0 0 0 0 0 0 0 0 0 0 0 0 0 0 0 0 0 0 0 0 0 0 0 0 0 0 0 0
-0 0 0 0 0 0 0 0 0 0 0 0 0 0 0 0 0 0 0 0 0 0 0 0 0 0 0 0 0 0 0 0 0 0 0 0 0 0 0 0 0 0 0 0
-0 0 0 0 0 0 0 1 1 1 1 0 0 0 0 0 0 0 0 0 0 0 0 0 0 0 0 0 0 0 0 0 0 0 0 0 0 0 0 0 0 0 0 0
0 0 0 0 0 0 0 0 -0 0 0 0 0 0 0 0 0 0 0 0 0 0 0 0 0 0 0 0 0 0 0 0 0 0 0 0 0 0 0 0 0 0 0 0
0 0 0 0 0 0 0 0 0 0 0 0 -0 0 0 0 0 0 0 0 0 0 0 0 0 0 0 0 0 0 0 0 0 0 0 0 0 0 0 0 0 0 0 0
0 0 0 0 -0 -0 -0 -0 -0 -0 0 0 0 0 0 0 0 0 0 0 0 0 0 0 0 0 0 0 0 0 0 0 0 0 0 0 0 0 0 0 0 0 0 0
-0 -0 -0 -0 0 0 -0 -0 -0 0 0 0 0 0 0 0 0 0 0 0 0 0 0 0 0 0 0 0 0 0 0 0 0 0 0 0 0 0 0 0 0 0 0 0
-0 -0 0 0 -0 -0 -0 -0 -0 -0 -0 -0 -0 0 0 0 0 0 0 0 0 0 0 0 0 0 0 0 0 0 0 0 0 0 0 0 0 0 0 0 0 0 0 0
-0 -0 0 0 0 -0 -0 -0 0 -0 -0 -0 -0 0 0 0 0 0 0 0 0 0 0 0 0 -0 0 0 0 0 0 0 0 0 0 0 0 0 0 0 0 0 0 0
-0 -0 -0 0 0 0 0 -0 -0 -0 -0 0 0 0 0 0 -0 0 0 0 0 0 0 0 0 0 0 0 0 0 0 0 0 0 0 0 0 0 0 0 0 0 0 0
-0 -0 -0 -0 -0 -0 -0 0 0 0 -0 -0 0 0 0 0 0 0 0 0 0 0 0 0 0 0 0 0 0 0 0 0 0 0 0 0 0 0 0 0 0 0 0 0
0 0 0 0 0 0 0 0 -0 0 0 0 0 0 0 0 0 0 0 0 0 0 0 0 0 0 0 0 0 0 0 0 0 0 0 0 0 0 0 0 0 0 0 0
0 0 0 0 0 0 0 0 0 0 0 0 0 0 0 0 0 0 0 0 0 0 0 0 0 0 0 0 0 0 0 0 0 0 0 0 0 0 0 0 0 0 0 0
0 0 0 0 0 0 0 0 0 0 0 0 0 0 0 0 0 0 0 0 0 0 0 0 0 0 0 0 0 0 0 0 0 0 0 0 0 0 0 0 0 0 0 0
0 0 0 0 0 0 0 0 0 0 0 0 0 0 0 0 0 0 0 0 0 0 0 0 0 0 0 0 0 0 0 0 0 0 0 0 0 0 0 0 0 0 0 0
0 0 0 0 0 0 0 0 0 0 0 0 0 0 0 0 0 0 0 0 0 0 0 0 0 0 0 0 0 0 0 0 0 0 0 0 0 0 0 0 0 0 0 0
0 0 0 0 0 0 0 0 0 0 0 0 0 0 0 0 0 0 0 0 0 0 0 0 0 0 0 0 0 0 0 0 0 0 0 0 0 0 0 0 0 0 0 0
Wind_Speed_500mb
30 27 28 29 22 39 44 28 25 22 31 5 25 22 14 14 11 11 29 32 20 27 41 35 36 47 52 49 47 44 42 40 40 39 36 36 33 33 31 31 33 33 29 29
24 31 33 37 37 35 23 39 21 42 28 12 29 19 17 9 9 13 19 21 32 33 51 48 54 48 47 52 49 46 44 39 36 34 33 34 35 35 36 35 34 33 28 29
25 28 18 25 32 39 34 32 13 34 8 33 14 18 14 10 8 7 7 9 34 34 37 50 56 53 43 46 46 45 43 38 37 34 33 35 33 34 38 36 35 38 31 30
21 22 25 21 19 20 39 25 12 28 33 20 16 16 11 7 11 6 14 11 9 15 28 34 38 30 42 38 44 45 41 38 40 33 30 31 33 40 41 39 40 42 39 32
20 21 25 17 14 22 27 31 32 41 43 19 5 7 13 6 5 6 9 15 19 12 27 28 38 43 39 39 39 38 35 38 30 26 31 36 45 43 45 47 45 41 38 37
21 14 24 18 8 19 16 25 31 14 24 16 8 14 14 8 8 6 7 17 17 19 23 33 42 39 36 28 33 32 19 21 23 33 36 37 34 34 40 34 39 37 39 37
21 19 12 18 7 12 12 6 26 35 11 19 3 14 12 9 7 7 10 15 20 24 29 30 31 36 36 26 25 24 36 34 15 16 17 17 15 18 23 35 45 47 47 49
15 14 16 11 7 15 14 21 16 26 15 28 20 15 13 10 7 9 13 19 23 30 34 30 21 24 34 39 45 42 35 31 23 19 17 15 11 14 20 27 37 40 34 32
14 13 9 9 18 22 16 18 21 21 19 25 33 20 13 12 13 10 13 24 21 24 26 26 30 39 40 37 35 36 36 35 30 25 21 17 17 21 17 25 24 21 12 17
20 23 22 12 19 24 27 24 22 7 10 6 17 22 17 15 12 9 17 23 30 28 28 29 28 32 38 37 35 32 26 24 23 21 18 19 19 14 13 15 16 14 10 5
18 31 35 27 20 20 19 23 20 10 16 16 18 9 16 22 15 13 18 22 24 28 30 33 30 36 40 34 27 24 22 23 22 20 16 15 11 13 14 10 7 8 12 11
20 16 6 14 7 10 15 16 23 15 15 17 23 27 22 31 11 10 19 21 26 32 33 32 29 32 30 25 19 22 25 24 20 16 16 18 13 8 7 7 5 6 8 6
29 20 8 5 8 8 12 9 9 12 21 11 23 26 25 32 24 19 21 25 23 25 29 29 30 31 31 31 30 30 28 27 25 20 19 16 13 11 7 6 6 4 2 1
22 21 13 18 19 15 16 13 10 11 16 22 29 30 24 25 28 24 24 25 25 27 27 27 28 26 24 27 27 24 25 26 19 19 17 15 14 14 10 8 6 5 5 4
25 30 29 23 25 24 15 13 14 22 30 29 6 25 21 23 24 24 25 24 25 26 26 25 27 27 25 23 24 23 20 17 17 17 15 15 13 12 9 10 8 5 3 3
30 35 35 24 34 32 31 24 19 8 22 29 24 22 22 24 25 26 26 26 27 24 25 24 24 23 23 23 22 19 20 22 17 10 10 9 8 6 5 4 4 5 5 6
36 38 38 29 29 32 31 25 21 15 14 21 23 25 25 29 27 24 22 20 20 21 21 23 24 23 19 17 14 10 9 9 13 8 6 5 5 5 7 8 10 11 11 15
34 32 38 35 35 36 31 29 23 20 22 24 26 23 22 23 26 22 22 19 20 21 20 22 20 18 16 14 12 9 8 4 4 3 5 3 5 7 9 11 13 14 14 21
33 26 33 41 37 35 34 32 24 26 28 28 27 25 22 21 22 23 22 20 18 16 17 18 20 19 12 13 12 4 5 5 7 5 5 10 11 10 12 14 15 17 20 21
39 31 30 38 38 36 35 32 27 28 32 32 30 29 26 24 23 24 23 21 14 11 28 20 18 15 12 14 10 6 9 11 12 13 13 13 19 18 18 21 22 24 25 26
43 39 36 40 40 39 37 36 31 32 36 36 34 32 30 25 23 24 22 24 22 21 17 24 14 14 20 17 12 12 15 14 12 15 15 16 16 18 23 22 26 29 31 29
41 41 42 44 45 42 40 38 36 33 37 37 35 32 29 26 25 23 17 13 18 20 16 12 18 21 18 18 8 8 7 9 12 13 14 16 18 20 23 25 28 31 32 31
41 44 45 48 49 45 42 43 41 38 39 40 38 36 32 27 25 24 22 17 15 24 18 19 26 20 18 10 11 8 7 6 7 7 8 10 13 17 21 24 27 30 32 33
39 46 46 49 49 46 45 44 43 39 38 38 37 36 31 28 26 18 25 23 26 25 22 17 18 16 17 10 9 7 6 4 2 5 8 11 13 16 19 22 25 26 29 32
40 46 47 51 51 47 44 47 45 41 41 39 38 36 31 31 29 25 25 26 23 24 21 20 15 15 17 12 9 8 5 3 5 7 9 14 16 19 23 27 25 26 29 30
41 49 50 49 50 47 44 49 51 45 44 44 40 37 34 33 30 30 29 28 29 27 17 20 15 14 13 11 9 9 8 10 9 10 14 17 19 24 28 40 33 29 27 28
39 45 46 48 49 46 46 50 50 46 46 46 42 40 39 37 34 34 33 32 28 24 21 17 17 17 15 14 11 11 11 9 12 13 16 14 20 23 26 29 33 40 31 28
Wind_Direction_500mb
291 306 284 275 144 289 293 280 260 114 265 29 117 125 116 119 139 178 80 351 281 250 232 217 195 198 203 202 201 198 199 203 209 213 213 216 218 221 223 227 234 233 235 241
286 281 270 268 269 259 208 253 308 336 218 104 98 120 138 130 141 152 191 172 282 266 223 225 217 205 204 202 201 197 200 202 204 210 213 215 219 217 234 226 227 242 239 240
280 299 298 277 263 259 254 262 310 217 5 340 114 149 135 139 139 190 208 225 226 228 221 212 208 204 200 201 196 196 196 199 206 210 218 220 220 226 230 232 226 232 233 239
273 286 264 258 1 328 315 244 257 276 138 194 39 99 125 147 152 152 209 180 152 206 182 198 198 185 193 195 196 194 190 196 201 208 219 231 234 241 240 236 236 233 232 232
280 255 261 265 229 229 260 278 271 164 262 110 153 167 155 138 132 139 157 177 177 190 189 186 191 187 186 184 185 196 189 198 213 235 253 251 257 250 248 242 240 235 230 221
278 309 297 33 3 325 352 287 290 223 241 105 245 248 96 117 112 116 131 161 171 167 156 176 173 176 177 180 181 177 178 201 210 226 237 238 232 238 244 241 239 232 241 228
240 254 296 68 177 327 245 308 333 325 316 129 130 60 115 109 87 103 135 132 162 159 168 145 162 176 189 213 222 231 234 237 230 247 219 231 241 239 247 248 244 251 241 242
226 267 275 12 245 261 15 323 355 316 2 93 118 116 124 114 126 146 169 125 124 138 147 137 134 168 166 179 196 198 204 202 205 212 230 220 214 228 239 245 254 238 237 255
320 353 254 293 299 291 319 302 308 295 240 226 127 122 121 115 122 133 156 155 130 120 140 116 126 143 143 142 139 148 162 164 167 177 168 153 137 125 94 97 93 79 97 118
270 258 280 286 287 277 268 264 269 269 252 82 112 114 119 112 109 110 137 136 136 141 138 135 135 148 140 136 150 154 157 162 163 167 165 155 154 143 130 135 129 125 133 147
268 257 265 259 243 276 266 238 253 224 178 178 137 118 141 115 103 107 111 118 125 141 146 140 142 150 154 152 153 149 149 147 149 149 155 175 165 148 140 148 169 188 199 185
266 348 304 326 304 250 237 220 234 213 221 179 165 164 155 114 101 116 112 109 119 119 120 129 136 144 150 150 140 139 139 137 137 140 140 140 140 145 145 161 198 213 236 242
265 276 290 146 197 156 148 88 82 139 207 152 160 151 137 130 144 127 107 107 103 109 113 120 126 124 124 123 126 126 132 131 123 117 122 129 114 94 80 89 76 58 46 291
253 233 227 185 193 165 149 138 119 136 234 210 297 129 134 135 131 133 129 126 123 120 119 122 120 117 126 127 121 122 126 124 117 116 122 126 125 114 112 99 91 81 90 84
234 216 224 199 193 172 171 157 172 173 136 123 100 125 135 134 135 138 132 129 127 127 125 122 120 122 128 126 120 113 112 121 125 124 127 126 118 123 130 113 122 134 30 10
221 211 225 206 184 179 170 175 181 178 160 150 164 162 161 142 136 136 136 139 134 137 134 135 127 127 125 123 121 132 142 137 131 134 138 142 147 164 174 173 224 237 246 256
218 204 212 217 199 192 191 195 191 167 171 174 172 171 167 154 153 153 149 146 143 140 140 139 143 139 126 123 129 125 117 135 144 131 153 173 206 239 254 251 260 265 265 248
224 213 213 214 210 192 197 196 182 173 174 165 161 162 162 165 165 163 169 157 149 144 149 159 155 145 142 138 137 144 152 150 138 176 212 265 226 250 258 261 264 272 277 268
210 221 214 215 213 199 199 187 185 185 180 177 170 166 160 160 160 165 167 163 159 163 173 169 174 151 170 177 146 176 210 229 243 258 265 272 280 278 270 275 281 284 281 278
223 221 213 208 200 196 192 185 183 185 185 184 182 180 177 173 171 174 175 177 177 168 169 187 186 179 203 241 193 206 248 257 260 269 265 267 277 275 278 279 278 283 278 275
215 209 202 196 194 186 189 176 180 184 182 184 186 187 190 178 187 185 184 197 199 205 189 219 191 226 213 228 266 249 261 257 265 272 280 286 282 284 286 287 283 280 278 277
203 200 197 192 188 183 183 179 181 180 183 184 186 184 182 184 186 184 187 202 187 206 189 213 204 212 210 214 227 244 236 252 265 277 281 283 284 286 286 285 284 284 280 275
202 197 192 187 186 184 181 183 183 181 179 181 181 178 179 183 183 183 181 171 171 157 166 191 207 200 190 165 192 200 225 243 259 278 289 289 292 296 296 294 289 285 283 281
196 191 190 187 186 185 182 185 186 184 183 183 185 183 182 180 178 175 188 180 182 159 186 195 176 172 154 180 174 177 181 198 265 295 300 327 313 318 315 308 301 295 293 290
190 188 187 187 186 187 186 185 187 186 187 188 188 186 186 185 184 182 168 167 175 165 180 182 178 156 146 183 191 203 229 251 271 324 327 327 330 323 327 327 320 301 290 288
187 187 187 187 189 190 191 189 191 191 191 191 193 192 190 188 188 184 175 177 165 175 178 178 179 173 177 208 217 237 247 263 316 330 319 323 318 320 318 331 329 319 309 299
192 188 184 187 190 192 193 191 195 194 197 196 196 194 191 190 190 184 185 178 181 184 197 208 194 200 204 223 235 231 246 260 273 289 302 323 323 325 325 322 323 326 321 309
Wind_Speed_850mb
30 27 28 29 22 39 44 28 25 22 31 5 25 22 14 14 11 11 29 32 20 27 41 35 36 47 52 49 47 44 42 40 40 39 36 36 33 33 31 31 33 33 29 29
24 31 33 37 37 35 23 39 21 42 28 12 29 19 17 9 9 13 19 21 32 33 51 48 54 48 47 52 49 46 44 39 36 34 33 34 35 35 36 35 34 33 28 29
25 28 18 25 32 39 34 32 13 34 8 33 14 18 14 10 8 7 7 9 34 34 37 50 56 53 43 46 46 45 43 38 37 34 33 35 33 34 38 36 35 38 31 30
21 22 25 21 19 20 39 25 12 28 33 20 16 16 11 7 11 6 14 11 9 15 28 34 38 30 42 38 44 45 41 38 40 33 30 31 33 40 41 39 40 42 39 32
20 21 25 17 14 22 27 31 32 41 43 19 5 7 13 6 5 6 9 15 19 12 27 28 38 43 39 39 39 38 35 38 30 26 31 36 45 43 45 47 45 41 38 37
21 14 24 18 8 19 16 25 31 14 24 16 8 14 14 8 8 6 7 17 17 19 23 33 42 39 36 28 33 32 19 21 23 33 36 37 34 34 40 34 39 37 39 37
21 19 12 18 7 12 12 6 26 35 11 19 3 14 12 9 7 7 10 15 20 24 29 30 31 36 36 26 25 24 36 34 15 16 17 17 15 18 23 35 45 47 47 49
15 14 16 11 7 15 14 21 16 26 15 28 20 15 13 10 7 9 13 19 23 30 34 30 21 24 34 39 45 42 35 31 23 19 17 15 11 14 20 27 37 40 34 32
14 13 9 9 18 22 16 18 21 21 19 25 33 20 13 12 13 10 13 24 21 24 26 26 30 39 40 37 35 36 36 35 30 25 21 17 17 21 17 25 24 21 12 17
20 23 22 12 19 24 27 24 22 7 10 6 17 22 17 15 12 9 17 23 30 28 28 29 28 32 38 37 35 32 26 24 23 21 18 19 19 14 13 15 16 14 10 5
18 31 35 27 20 20 19 23 20 10 16 16 18 9 16 22 15 13 18 22 24 28 30 33 30 36 40 34 27 24 22 23 22 20 16 15 11 13 14 10 7 8 12 11
20 16 6 14 7 10 15 16 23 15 15 17 23 27 22 31 11 10 19 21 26 32 33 32 29 32 30 25 19 22 25 24 20 16 16 18 13 8 7 7 5 6 8 6
29 20 8 5 8 8 12 9 9 12 21 11 23 26 25 32 24 19 21 25 23 25 29 29 30 31 31 31 30 30 28 27 25 20 19 16 13 11 7 6 6 4 2 1
22 21 13 18 19 15 16 13 10 11 16 22 29 30 24 25 28 24 24 25 25 27 27 27 28 26 24 27 27 24 25 26 19 19 17 15 14 14 10 8 6 5 5 4
25 30 29 23 25 24 15 13 14 22 30 29 6 25 21 23 24 24 25 24 25 26 26 25 27 27 25 23 24 23 20 17 17 17 15 15 13 12 9 10 8 5 3 3
30 35 35 24 34 32 31 24 19 8 22 29 24 22 22 24 25 26 26 26 27 24 25 24 24 23 23 23 22 19 20 22 17 10 10 9 8 6 5 4 4 5 5 6
36 38 38 29 29 32 31 25 21 15 14 21 23 25 25 29 27 24 22 20 20 21 21 23 24 23 19 17 14 10 9 9 13 8 6 5 5 5 7 8 10 11 11 15
34 32 38 35 35 36 31 29 23 20 22 24 26 23 22 23 26 22 22 19 20 21 20 22 20 18 16 14 12 9 8 4 4 3 5 3 5 7 9 11 13 14 14 21
33 26 33 41 37 35 34 32 24 26 28 28 27 25 22 21 22 23 22 20 18 16 17 18 20 19 12 13 12 4 5 5 7 5 5 10 11 10 12 14 15 17 20 21
39 31 30 38 38 36 35 32 27 28 32 32 30 29 26 24 23 24 23 21 14 11 28 20 18 15 12 14 10 6 9 11 12 13 13 13 19 18 18 21 22 24 25 26
43 39 36 40 40 39 37 36 31 32 36 36 34 32 30 25 23 24 22 24 22 21 17 24 14 14 20 17 12 12 15 14 12 15 15 16 16 18 23 22 26 29 31 29
41 41 42 44 45 42 40 38 36 33 37 37 35 32 29 26 25 23 17 13 18 20 16 12 18 21 18 18 8 8 7 9 12 13 14 16 18 20 23 25 28 31 32 31
41 44 45 48 49 45 42 43 41 38 39 40 38 36 32 27 25 24 22 17 15 24 18 19 26 20 18 10 11 8 7 6 7 7 8 10 13 17 21 24 27 30 32 33
39 46 46 49 49 46 45 44 43 39 38 38 37 36 31 28 26 18 25 23 26 25 22 17 18 16 17 10 9 7 6 4 2 5 8 11 13 16 19 22 25 26 29 32
40 46 47 51 51 47 44 47 45 41 41 39 38 36 31 31 29 25 25 26 23 24 21 20 15 15 17 12 9 8 5 3 5 7 9 14 16 19 23 27 25 26 29 30
41 49 50 49 50 47 44 49 51 45 44 44 40 37 34 33 30 30 29 28 29 27 17 20 15 14 13 11 9 9 8 10 9 10 14 17 19 24 28 40 33 29 27 28
39 45 46 48 49 46 46 50 50 46 46 46 42 40 39 37 34 34 33 32 28 24 21 17 17 17 15 14 11 11 11 9 12 13 16 14 20 23 26 29 33 40 31 28
Wind_Direction_850mb
291 306 284 275 144 289 293 280 260 114 265 29 117 125 116 119 139 178 80 351 281 250 232 217 195 198 203 202 201 198 199 203 209 213 213 216 218 221 223 227 234 233 235 241
286 281 270 268 269 259 208 253 308 336 218 104 98 120 138 130 141 152 191 172 282 266 223 225 217 205 204 202 201 197 200 202 204 210 213 215 219 217 234 226 227 242 239 240
280 299 298 277 263 259 254 262 310 217 5 340 114 149 135 139 139 190 208 225 226 228 221 212 208 204 200 201 196 196 196 199 206 210 218 220 220 226 230 232 226 232 233 239
273 286 264 258 1 328 315 244 257 276 138 194 39 99 125 147 152 152 209 180 152 206 182 198 198 185 193 195 196 194 190 196 201 208 219 231 234 241 240 236 236 233 232 232
280 255 261 265 229 229 260 278 271 164 262 110 153 167 155 138 132 139 157 177 177 190 189 186 191 187 186 184 185 196 189 198 213 235 253 251 257 250 248 242 240 235 230 221
278 309 297 33 3 325 352 287 290 223 241 105 245 248 96 117 112 116 131 161 171 167 156 176 173 176 177 180 181 177 178 201 210 226 237 238 232 238 244 241 239 232 241 228
240 254 296 68 177 327 245 308 333 325 316 129 130 60 115 109 87 103 135 132 162 159 168 145 162 176 189 213 222 231 234 237 230 247 219 231 241 239 247 248 244 251 241 242
226 267 275 12 245 261 15 323 355 316 2 93 118 116 124 114 126 146 169 125 124 138 147 137 134 168 166 179 196 198 204 202 205 212 230 220 214 228 239 245 254 238 237 255
320 353 254 293 299 291 319 302 308 295 240 226 127 122 121 115 122 133 156 155 130 120 140 116 126 143 143 142 139 148 162 164 167 177 168 153 137 125 94 97 93 79 97 118
270 258 280 286 287 277 268 264 269 269 252 82 112 114 119 112 109 110 137 136 136 141 138 135 135 148 140 136 150 154 157 162 163 167 165 155 154 143 130 135 129 125 133 147
268 257 265 259 243 276 266 238 253 224 178 178 137 118 141 115 103 107 111 118 125 141 146 140 142 150 154 152 153 149 149 147 149 149 155 175 165 148 140 148 169 188 199 185
266 348 304 326 304 250 237 220 234 213 221 179 165 164 155 114 101 116 112 109 119 119 120 129 136 144 150 150 140 139 139 137 137 140 140 140 140 145 145 161 198 213 236 242
265 276 290 146 197 156 148 88 82 139 207 152 160 151 137 130 144 127 107 107 103 109 113 120 126 124 124 123 126 126 132 131 123 117 122 129 114 94 80 89 76 58 46 291
253 233 227 185 193 165 149 138 119 136 234 210 297 129 134 135 131 133 129 126 123 120 119 122 120 117 126 127 121 122 126 124 117 116 122 126 125 114 112 99 91 81 90 84
234 216 224 199 193 172 171 157 172 173 136 123 100 125 135 134 135 138 132 129 127 127 125 122 120 122 128 126 120 113 112 121 125 124 127 126 118 123 130 113 122 134 30 10
221 211 225 206 184 179 170 175 181 178 160 150 164 162 161 142 136 136 136 139 134 137 134 135 127 127 125 123 121 132 142 137 131 134 138 142 147 164 174 173 224 237 246 256
218 204 212 217 199 192 191 195 191 167 171 174 172 171 167 154 153 153 149 146 143 140 140 139 143 139 126 123 129 125 117 135 144 131 153 173 206 239 254 251 260 265 265 248
224 213 213 214 210 192 197 196 182 173 174 165 161 162 162 165 165 163 169 157 149 144 149 159 155 145 142 138 137 144 152 150 138 176 212 265 226 250 258 261 264 272 277 268
210 221 214 215 213 199 199 187 185 185 180 177 170 166 160 160 160 165 167 163 159 163 173 169 174 151 170 177 146 176 210 229 243 258 265 272 280 278 270 275 281 284 281 278
223 221 213 208 200 196 192 185 183 185 185 184 182 180 177 173 171 174 175 177 177 168 169 187 186 179 203 241 193 206 248 257 260 269 265 267 277 275 278 279 278 283 278 275
215 209 202 196 194 186 189 176 180 184 182 184 186 187 190 178 187 185 184 197 199 205 189 219 191 226 213 228 266 249 261 257 265 272 280 286 282 284 286 287 283 280 278 277
203 200 197 192 188 183 183 179 181 180 183 184 186 184 182 184 186 184 187 202 187 206 189 213 204 212 210 214 227 244 236 252 265 277 281 283 284 286 286 285 284 284 280 275
202 197 192 187 186 184 181 183 183 181 179 181 181 178 179 183 183 183 181 171 171 157 166 191 207 200 190 165 192 200 225 243 259 278 289 289 292 296 296 294 289 285 283 281
196 191 190 187 186 185 182 185 186 184 183 183 185 183 182 180 178 175 188 180 182 159 186 195 176 172 154 180 174 177 181 198 265 295 300 327 313 318 315 308 301 295 293 290
190 188 187 187 186 187 186 185 187 186 187 188 188 186 186 185 184 182 168 167 175 165 180 182 178 156 146 183 191 203 229 251 271 324 327 327 330 323 327 327 320 301 290 288
187 187 187 187 189 190 191 189 191 191 191 191 193 192 190 188 188 184 175 177 165 175 178 178 179 173 177 208 217 237 247 263 316 330 319 323 318 320 318 331 329 319 309 299
192 188 184 187 190 192 193 191 195 194 197 196 196 194 191 190 190 184 185 178 181 184 197 208 194 200 204 223 235 231 246 260 273 289 302 323 323 325 325 322 323 326 321 309